Location: Dos Palmas
(32.4468°N, 116.8732°W)
Time: 05:41:33
(UTC+00:00)

Cosmos 292 Rocket - Pass Details

Date: 20 June 2021
Orbit: 674 x 693 km, 74.0° (Epoch: 29 July)

Event Time Altitude Azimuth Distance (km) Brightness Sun altitude
Rises 03:25:25 0° 188° (S) 3,048 6.9 -5.9°
Reaches altitude 10° 03:27:43 10° 186° (S) 2,134 6.1 -6.3°
Maximum altitude 03:32:29 67° 104° (ESE) 748 3.8 -7.1°
Drops below altitude 10° 03:37:16 10° 23° (NNE) 2,137 6.5 -8.0°
Sets 03:39:35 0° 20° (NNE) 3,054 7.3 -8.4°
